Regional Weather Roundup
Issued by NWS

Home | Current Version | Previous Version | Text Only | Print | Product List | Glossary On
Versions: 1 2 3 4 5 6 7 8 9 10 11 12 13 14 15 16 17 18 19 20 21 22 23 24 25 26 27 28 29 30 31 32 33 34 35 36 37 38 39 40 41 42 43 44 45 46 47 48 49 50
000
ASHW40 PHFO 310410
RWRHI

WEATHER ROUNDUP FOR HAWAII
NATIONAL WEATHER SERVICE HONOLULU HI
600 PM HST WED JUL 30 2014

THIS IS AN AUTOMATED REPORT THAT HAS NOT BEEN QUALITY CONTROLLED.

NOTE..."FAIR" INDICATES FEW OR NO CLOUDS BELOW 12,000 FEET WITH NO
SIGNIFICANT WEATHER AND/OR OBSTRUCTIONS TO VISIBILITY.

* - THESE SITES REPORT LIMITED FIELDS

HIZ001>004-310500-
KAUAI-NIIHAU-

CITY           SKY/WX    TMP DP  RH WIND       PRES   REMARKS
LIHUE APT      MOSUNNY   81  68  64 NE12      30.01S
PORT ALLEN*      N/A     84 N/A N/A NE16G24     N/A
POIPU*           N/A     82 N/A N/A NE7G14      N/A
PRINCEVILLE*   NOT AVBL
KOKOLE POINT*  NOT AVBL
MOLOAA DAIRY*  NOT AVBL
WAIMEA HTS*    NOT AVBL
PUU OPAE*      NOT AVBL
PUU LUA*       NOT AVBL
MAKAHA RIDGE*  NOT AVBL
$$

HIZ005>011-310500-
OAHU-

CITY           SKY/WX    TMP DP  RH WIND       PRES   REMARKS
HONOLULU       MOSUNNY   83  65  54 NE12      29.98R
KALAELOA       SUNNY     83  64  52 NE8G17    29.98R
KANEOHE MCB    MOSUNNY   82  64  53 NE10      29.99S
WHEELER FIELD  FAIR      78  65  65 E10       30.00R
BELLOWS*       NOT AVBL
KAHUKU*        NOT AVBL
WHEELER*       NOT AVBL
WAIANAE HARBOR NOT AVBL
DILLINGHAM*      N/A     84  66  54 NE8G18      N/A
KAHUKU TRN*      N/A     79  66  65 E7G17       N/A
KAWAILOA*      NOT AVBL
KII*             N/A     81  70  69 CALM        N/A
MAKUA RANGE*     N/A     82  64  54 NE13G22     N/A
OAHU FOREST NW NOT AVBL
SCHOFIELD BRK*   N/A     77  64  65 MISG        N/A
SCHOFIELD S*   NOT AVBL
WAIANAE VLY*   NOT AVBL
KUAOKALA*      NOT AVBL
HONOULIUULI*   NOT AVBL
MOKUOLOE IS*   NOT AVBL
PALEHUA*       NOT AVBL
WAIAWA PHB*    NOT AVBL
$$

HIZ012>013-310500-
MOLOKAI-

CITY           SKY/WX    TMP DP  RH WIND       PRES   REMARKS
MOLOKAI AIRPT  SUNNY     79  69  71 NE13G25   29.98S
KALAUPAPA      NOT AVBL
MAKAPULAPAI*   NOT AVBL
MOLOKAI 1*     NOT AVBL
PUU ALII*      NOT AVBL
$$

HIZ016-310500-
KAHOOLAWE-

CITY           SKY/WX    TMP DP  RH WIND       PRES   REMARKS
KAHOOLAWE*     NOT AVBL
HAKIOAWA*      NOT AVBL
HONOKANAIA*      N/A     81  64  56 NE17G30   29.98R
KANELOA*         N/A     77  64  65 E18G32    30.07R
KEALIALALO*    NOT AVBL
LUA MAKIKA*    NOT AVBL
$$

HIZ014>015-310500-
LANAI-

CITY           SKY/WX    TMP DP  RH WIND       PRES   REMARKS
LANAI CITY     FAIR      77  65  66 NE23      30.02S
LANAI 1*       NOT AVBL
$$

HIZ017>028-310500-
MAUI-

CITY           SKY/WX    TMP DP  RH WIND       PRES   REMARKS
KAHULUI        MOSUNNY   82  66  58 NE23G30   29.96R
KAPALUA-W MAUI MOSUNNY   79  64  61 NE18G25   29.98
HANA AIRPORT   MOSUNNY   81  66  61 CALM      30.03S
HANA*            N/A     81 N/A N/A E7          N/A
HALEAKALA SUMM   N/A     55  25  30 NW6         N/A
MAALAEA BAY*   NOT AVBL
HALEAKALA*     NOT AVBL
KAUPO GAP*     NOT AVBL
KULA 1*          N/A     56  52  87 NW2G9       N/A
$$

HIZ023>026-310500-
BIG ISLAND OF HAWAII COAST AND LOWER SLOPES-

CITY           SKY/WX    TMP DP  RH WIND       PRES   REMARKS
KAILUA KONA    PTSUNNY   83  70  64 SW13      29.94R
HILO           LGT RAIN  80  68  66 VRB3      29.99R
HONOKAA*       NOT AVBL
KAWAIHAE MWT*    N/A     84 N/A N/A SW10        N/A
KAWAIHAE*      NOT AVBL
SOUTH POINT*   NOT AVBL
UPOLU AIRPORT*   N/A    N/A N/A N/A NE16G24     N/A
KAMUELA*       CLEAR     72  61  68 NE13      30.09S
HAKALAU*         N/A     55  55  98 E3          N/A
KALOKO-HONOKO* NOT AVBL
PALI 2*          N/A     68  59  73 NE17G25     N/A
KEALAKOMO*       N/A     84  63  48 NE15G26     N/A
KAUPULEHU*     NOT AVBL
KAPAPALA*        N/A     73  65  75 SW3G10      N/A
LOWER KAHUKU*  NOT AVBL
PUHE CS*       NOT AVBL
PUHO CS*       NOT AVBL
PTA KEAMUKU*     N/A     70  57  64 NE14G20     N/A
WAIKOLOA*      NOT AVBL
$$

HIZ027>028-310500-
BIG ISLAND OF HAWAII INTERIOR AND SUMMMITS-

CITY           SKY/WX    TMP DP  RH WIND       PRES   REMARKS
BRADSHAW FIELD MOSUNNY   64  54  71 W7        30.31R
MK VISITOR CEN NOT AVBL
MAUNA KEA*       N/A     41  27  56 CALM        N/A
MAUNA LOA*     NOT AVBL
MAUNA LOA 1*   NOT AVBL
PTA KIPUKA*      N/A     66  54  63 NW7G13      N/A
PTA RANGE 17*    N/A     66  54  63 W8G15       N/A
PTA WEST*        N/A     70  55  60 NW10G16     N/A
NENE CABIN*    NOT AVBL
AHUMOA*        NOT AVBL
PTA PORTABLE*  NOT AVBL
PUU MALI*      NOT AVBL
$$

HIC003-310500-
NORTHWEST ISLANDS-

CITY           SKY/WX    TMP DP  RH WIND       PRES   REMARKS
MIDWAY ISLAND  MOSUNNY   84  75  74 SW9       30.02S HX  92
MIDWAY NOS*    NOT AVBL
FRENCH FRIGATE NOT AVBL
$$

PHZ110>124-180-310500-
BUOY REPORTS

STATION/POSITION TIME  TEMP    WIND        PRES    WAVE   SWELL
                       AIR SEA DIR/SP/G            HT/PER HT/DIR
                 (UTC) (F)     (DEG/KT/KT) (MB)    (FT/S) (FT/D)
BUOY 51001       NOT AVBL
BUOY 51101       NOT AVBL
BUOY 51100       0300   77 78   60/  8/ 10 1016.6F
BUOY 51003       0300   81 82   80/ 14/ 17 1014.0F   7/ 9   7
BUOY 51004       0323   79 80   60/ 17/ 21 1012.9R   8/ 9   3/100
BARBERS PT BUOY  NOT AVBL
WAIMEA BAY BUOY  0400      80                N/A     3/ 5
KAILUA BAY BUOY  0400      80                N/A     4/ 8   2/100
LANAI BUOY       0400      81                N/A     3/13   2/200
BARBERS PT 2     0400      81                N/A     4/13   2/190
PAUWELA MAUI     0400      79                N/A     5/ 8   2/100
HILO             NOT AVBL
KANEOHE BAY BUOY 0400      80                N/A     4/ 8
HANALEI KAUAI    NOT AVBL
KAHULUI HARBOR   0400   78 81   20/ 16/ 19 1014.9R
HONOLULU HARBOR  0400   81      60/  5/ 12 1015.2R
KILO NALU        NOT AVBL
HILO HARBOR      0400   80     320/  3/  4 1014.9S
MOKUOLOE         0400      83              1015.8R
NAWILIWILI       0400      82                N/A
WHOTS BUOY       NOT AVBL
BUOY 51028       NOT AVBL
$$

......................KEY........................................
  SKY/WX - SKY CONDITIONS/PRESENT WEATHER
  TMP    - TEMPERATURE IN FAHRENHEIT
  DWPT   - DEWPOINT IN FAHRENHEIT
  RH     - RELATIVE HUMIDITY IN PERCENT
  WIND   - DIRECTION AND SPEED /MPH FOR ISLANDS...KTS FOR BUOYS/
  PRES   - MEAN SEA LEVEL PRESSURE IN INCHES OF HG
  VSB    - VISIBILITY IN MILES
  HX     - HEAT INDEX
  WCI    - WIND CHILL INDEX
  VRB    - VARIABLE WIND DIRECTION
  N/A    - NOT AVAILABLE



USA.gov is the U.S. government's official web portal to all federal, state and local government web resources and services.